Weather History for Bucharest, Romania

Change the Weather History Date:

Monday, January 14, 2013

  Actual Average Record
Temperature  
Mean Temperature 25 °F -  
Max Temperature 30 °F 34 °F 57 °F (2007)
Min Temperature 20 °F 24 °F 8 °F (2003)
Degree Days  
Heating Degree Days 40    
Moisture  
Dew Point 25 °F    
Average Humidity 96    
Maximum Humidity 100    
Minimum Humidity 93    
Precipitation  
Precipitation 0.00 in - - ()
Sea Level Pressure  
Sea Level Pressure 30.28 in    
Wind  
Wind Speed 6 mph ()    
Max Wind Speed 10 mph    
Max Gust Speed -    
Visibility 0.9 miles    
Events Fog    
Averages and records for this station are not official NWS values.
T = Trace of Precipitation, MM = Missing Value Source: Averaged Metar Reports

Daily Weather History Graph

Daily Weather History Graph

Search for Another Location

Airport:

Trip Planner

Search our weather history database for the weather conditions in past years. The results will help you decide how hot, cold, wet, or windy it might be!

Date:

Astronomy

Jan. 14, 2013 Rise Set
Actual Time 7:49 AM EET 5:00 PM EET
Civil Twilight 7:16 AM EET 5:33 PM EET
Nautical Twilight 6:40 AM EET 6:09 PM EET
Astronomical Twilight 6:05 AM EET 6:44 PM EET
Moon 9:03 AM EET (1/14) 8:34 PM EET (1/14)
Length of Visible Light 10h 16m
Length of Day
9h 11m
Waxing Crescent, 9% of the Moon is Illuminated
Jan 14
Waxing Crescent
Jan 19
First Quarter
Jan 27
Full
Feb 3
Last Quarter
Feb 10
New

Hourly Weather History & Observations

Time (EET) Temp. Windchill Dew Point Humidity Pressure Visibility Wind Dir Wind Speed Gust Speed Precip Events Conditions
12:00 AM 22 °F - 22 °F 97% 30.27 in 1 mi NE 4.5 mph - -   Mist
12:00 AM 23.0 °F 13.9 °F 21.2 °F 93% 30.24 in 0.9 mi NE 8.1 mph - N/A   Overcast
12:30 AM 21.2 °F 10.9 °F 21.2 °F 100% 30.27 in 0.6 mi NE 9.2 mph - N/A Fog Light Freezing Fog
1:00 AM 22 °F - 21 °F 94% 30.30 in 1 mi NE 4.5 mph - -   Mist
1:00 AM 21.2 °F 13.6 °F 21.2 °F 100% 30.27 in 0.9 mi ENE 5.8 mph - N/A   Overcast
1:30 AM 21.2 °F 12.6 °F 21.2 °F 100% 30.27 in 0.9 mi NE 6.9 mph - N/A   Overcast
2:00 AM 22 °F - 21 °F 93% 30.29 in 1 mi NE 4.5 mph - -   Mist
2:00 AM 23.0 °F 13.1 °F 21.2 °F 93% 30.27 in 0.9 mi NE 9.2 mph - N/A   Overcast
2:30 AM 23.0 °F 13.9 °F 21.2 °F 93% 30.27 in 0.5 mi ENE 8.1 mph - N/A Fog Light Freezing Fog
3:00 AM 22 °F - 22 °F 97% 30.31 in 1 mi ENE 4.5 mph - -   Mist
3:00 AM 23.0 °F 13.9 °F 21.2 °F 93% 30.27 in 0.5 mi NE 8.1 mph - N/A Fog Light Freezing Fog
3:30 AM 23.0 °F 12.4 °F 23.0 °F 100% 30.24 in 0.7 mi NE 10.4 mph - N/A   Overcast
4:00 AM 23 °F - 23 °F 98% 30.29 in 1 mi ENE 6.7 mph - -   Mist
4:00 AM 23.0 °F 13.1 °F 23.0 °F 100% 30.24 in 0.9 mi NE 9.2 mph - N/A   Overcast
4:30 AM 24.8 °F 14.6 °F 23.0 °F 93% 30.24 in 0.9 mi ENE 10.4 mph - N/A   Overcast
5:00 AM 24 °F - 23 °F 95% 30.28 in 1 mi ENE 6.7 mph - -   Mist
5:00 AM 24.8 °F 15.3 °F 23.0 °F 93% 30.27 in 0.9 mi NE 9.2 mph - N/A   Overcast
5:30 AM 24.8 °F 16.9 °F 23.0 °F 93% 30.24 in 1.1 mi ENE 6.9 mph - N/A   Overcast
6:00 AM 24 °F - 23 °F 96% 30.28 in 2 mi ENE 4.5 mph - -   Mist
6:00 AM 24.8 °F 16.1 °F 23.0 °F 93% 30.27 in 0.9 mi NE 8.1 mph - N/A   Overcast
6:30 AM 23.0 °F 13.9 °F 23.0 °F 100% 30.27 in 0.8 mi NE 8.1 mph - N/A   Overcast
7:00 AM 23 °F - 23 °F 98% 30.30 in 2 mi ENE 6.7 mph - -   Mist
7:00 AM 23.0 °F 13.9 °F 21.2 °F 93% 30.27 in 1.4 mi NE 8.1 mph - N/A   Overcast
7:30 AM 23.0 °F 13.9 °F 21.2 °F 93% 30.27 in 1.2 mi NE 8.1 mph - N/A   Overcast
8:00 AM 23 °F - 22 °F 94% 30.31 in 2 mi NE 4.5 mph - -   Mist
8:00 AM 23.0 °F 14.7 °F 21.2 °F 93% 30.30 in 1.2 mi NE 6.9 mph - N/A   Overcast
8:30 AM 23.0 °F 13.1 °F 21.2 °F 93% 30.30 in 1.6 mi ENE 9.2 mph - N/A   Overcast
9:00 AM 23 °F - 22 °F 96% 30.33 in 2 mi NE 4.5 mph - -   Mist
9:00 AM 23.0 °F 13.9 °F 21.2 °F 93% 30.30 in 0.9 mi NE 8.1 mph - N/A   Overcast
9:30 AM 23.0 °F 13.9 °F 23.0 °F 100% 30.30 in 0.5 mi NE 8.1 mph - N/A Fog Light Freezing Fog
10:00 AM 24 °F - 23 °F 96% 30.33 in 1 mi NE 4.5 mph - -   Mist
10:00 AM 24.8 °F 16.9 °F 23.0 °F 93% 30.30 in 0.5 mi NE 6.9 mph - N/A Fog Light Freezing Fog
10:30 AM 24.8 °F 16.9 °F 24.8 °F 100% 30.30 in 0.6 mi ENE 6.9 mph - N/A Fog Light Freezing Fog
11:00 AM 26.6 °F 17.5 °F 24.8 °F 93% 30.30 in 0.5 mi NE 9.2 mph - N/A Fog Light Freezing Fog
11:30 AM 26.6 °F 19.1 °F 24.8 °F 93% 30.30 in 0.4 mi NE 6.9 mph - N/A Fog Light Freezing Fog
12:00 PM 27 °F - 26 °F 96% 30.32 in 1 mi ENE 6.7 mph - -   Mist
12:00 PM 26.6 °F 16.8 °F 26.6 °F 100% 30.30 in 0.6 mi NE 10.4 mph - N/A   Overcast
12:30 PM 28.4 °F 19.7 °F 26.6 °F 93% 30.30 in 0.9 mi NE 9.2 mph - N/A   Overcast
1:00 PM 28 °F - 28 °F 99% 30.32 in 1 mi ENE 4.5 mph - -   Mist
1:00 PM 28.4 °F 21.2 °F 26.6 °F 93% 30.27 in 0.9 mi NE 6.9 mph - N/A   Overcast
1:30 PM 28.4 °F 21.2 °F 26.6 °F 93% 30.27 in 1.0 mi NE 6.9 mph - N/A   Overcast
2:00 PM 28 °F - 28 °F 98% 30.30 in 1 mi ENE 6.7 mph - -   Mist
2:30 PM 28.4 °F 19.7 °F 26.6 °F 93% 30.27 in 0.6 mi NE 9.2 mph - N/A   Overcast
3:00 PM 28 °F - 28 °F 97% 30.30 in 1 mi ENE 6.7 mph - -   Mist
3:00 PM 28.4 °F 20.4 °F 26.6 °F 93% 30.27 in 0.5 mi ENE 8.1 mph - N/A Fog Light Freezing Fog
3:30 PM 28.4 °F 19.7 °F 26.6 °F 93% 30.27 in 0.5 mi ENE 9.2 mph - N/A Fog Light Freezing Fog
4:00 PM 28 °F - 28 °F 99% 30.31 in 1 mi ENE 4.5 mph - -   Mist
4:00 PM 28.4 °F 21.2 °F 26.6 °F 93% 30.27 in 0.4 mi NE 6.9 mph - N/A Fog Light Freezing Fog
4:30 PM 28.4 °F 22.2 °F 26.6 °F 93% 30.30 in 0.4 mi ENE 5.8 mph - N/A Fog Light Freezing Fog
5:00 PM 28 °F - 28 °F 99% 30.31 in 0 mi NE 2.2 mph - - Fog Partial Fog
5:00 PM 28.4 °F 22.2 °F 26.6 °F 93% 30.27 in 0.2 mi NE 5.8 mph - N/A Fog Light Freezing Fog
5:30 PM 28.4 °F 20.4 °F 26.6 °F 93% 30.27 in 0.1 mi NE 8.1 mph - N/A Fog Light Freezing Fog
6:00 PM 28 °F - 28 °F 98% 30.29 in 0 mi ENE 6.7 mph - - Fog Partial Fog
6:00 PM 28.4 °F 20.4 °F 26.6 °F 93% 30.27 in 0.2 mi NE 8.1 mph - N/A Fog Light Freezing Fog
6:30 PM 28.4 °F 21.2 °F 26.6 °F 93% 30.27 in 0.2 mi NE 6.9 mph - N/A Fog Light Freezing Fog
7:00 PM 29 °F - 28 °F 96% 30.31 in 0 mi ENE 4.5 mph - - Fog Partial Fog
7:00 PM 28.4 °F 23.3 °F 26.6 °F 93% 30.27 in 0.3 mi NNE 4.6 mph - N/A Fog Light Freezing Fog
7:30 PM 28.4 °F 24.6 °F 26.6 °F 93% 30.27 in 0.3 mi North 3.5 mph - N/A Fog Light Freezing Fog
8:00 PM 29 °F - 29 °F 98% 30.30 in 0 mi NNE 4.5 mph - - Fog Partial Fog
8:00 PM 28.4 °F 24.6 °F 28.4 °F 100% 30.27 in 0.5 mi NNE 3.5 mph - N/A Fog Light Freezing Fog
8:30 PM 28.4 °F 23.3 °F 28.4 °F 100% 30.24 in 0.9 mi NNE 4.6 mph - N/A   Partly Cloudy
9:00 PM 29 °F - 29 °F 100% 30.29 in 1 mi NNE 2.2 mph - - Fog Light Fog
9:00 PM 28.4 °F 22.2 °F 28.4 °F 100% 30.24 in 1.2 mi NNE 5.8 mph - N/A   Overcast
9:30 PM 30.2 °F 25.4 °F 28.4 °F 93% 30.24 in 1.6 mi North 4.6 mph - N/A   Overcast
10:00 PM 30 °F - 29 °F 97% 30.27 in 1 mi NE 4.5 mph - -   Mist
10:00 PM 30.2 °F 24.3 °F 28.4 °F 93% 30.24 in 1.6 mi NE 5.8 mph - N/A   Overcast
10:30 PM 30.2 °F 25.4 °F 28.4 °F 93% 30.24 in 1.2 mi NE 4.6 mph - N/A   Overcast
11:00 PM 30 °F - 30 °F 100% 30.27 in 2 mi NE 4.5 mph - -   Mist
11:00 PM 30.2 °F - 28.4 °F 93% 30.24 in 0.9 mi Variable 2.3 mph - N/A   Overcast
11:30 PM 30.2 °F - 30.2 °F 100% 30.24 in 0.4 mi Variable 2.3 mph - N/A Fog Light Freezing Fog